TimePDT,TemperatureF,Dew PointF,Humidity,Sea Level PressureIn,VisibilityMPH,Wind Direction,Wind SpeedMPH,Gust SpeedMPH,PrecipitationIn,Events,Conditions,WindDirDegrees,DateUTC
12:56 AM,91.0,50.0,24,29.72,10.0,ESE,9.2,-,N/A,,Clear,120,2013-07-21 07:56:00
1:56 AM,89.1,46.0,22,29.73,10.0,ENE,5.8,-,N/A,,Clear,70,2013-07-21 08:56:00
2:56 AM,88.0,53.1,30,29.74,10.0,South,4.6,-,N/A,,Clear,190,2013-07-21 09:56:00
3:56 AM,87.1,54.0,32,29.74,10.0,South,12.7,-,N/A,,Clear,170,2013-07-21 10:56:00
4:56 AM,84.9,50.0,30,29.74,10.0,SW,10.4,-,N/A,,Clear,230,2013-07-21 11:56:00
5:56 AM,84.0,55.0,37,29.76,10.0,SSW,11.5,-,N/A,,Clear,200,2013-07-21 12:56:00
6:56 AM,87.1,54.0,32,29.75,10.0,SSW,9.2,-,N/A,,Clear,210,2013-07-21 13:56:00
7:56 AM,89.1,51.1,27,29.77,10.0,Calm,Calm,-,N/A,,Clear,0,2013-07-21 14:56:00
8:56 AM,93.0,54.0,27,29.78,10.0,SSW,5.8,-,N/A,,Clear,200,2013-07-21 15:56:00
9:56 AM,95.0,52.0,23,29.78,10.0,SSW,3.5,-,N/A,,Clear,210,2013-07-21 16:56:00
10:56 AM,99.0,52.0,21,29.78,10.0,Calm,Calm,-,N/A,,Clear,0,2013-07-21 17:56:00
11:56 AM,102.0,52.0,19,29.77,10.0,East,5.8,-,N/A,,Clear,90,2013-07-21 18:56:00
12:56 PM,105.1,53.1,18,29.76,10.0,ESE,9.2,-,N/A,,Clear,110,2013-07-21 19:56:00
1:56 PM,102.9,55.0,20,29.76,10.0,SE,15.0,-,N/A,,Clear,140,2013-07-21 20:56:00
2:56 PM,102.0,53.1,19,29.77,10.0,ESE,17.3,23.0,N/A,,Clear,120,2013-07-21 21:56:00
3:56 PM,102.0,52.0,19,29.76,10.0,East,17.3,23.0,N/A,,Clear,100,2013-07-21 22:56:00
4:56 PM,100.0,51.1,19,29.75,10.0,ESE,11.5,20.7,N/A,,Partly Cloudy,110,2013-07-21 23:56:00
5:56 PM,99.0,51.1,20,29.74,10.0,ESE,6.9,-,N/A,,Mostly Cloudy,120,2013-07-22 00:56:00
6:56 PM,98.1,51.1,20,29.75,10.0,NNE,3.5,-,N/A,,Clear,30,2013-07-22 01:56:00
7:56 PM,96.1,54.0,24,29.77,10.0,SE,8.1,-,0.00,,Mostly Cloudy,130,2013-07-22 02:56:00
8:56 PM,93.0,63.0,37,29.80,10.0,SE,11.5,-,N/A,,Clear,140,2013-07-22 03:56:00
9:56 PM,91.0,64.9,42,29.86,10.0,ESE,16.1,-,N/A,,Mostly Cloudy,110,2013-07-22 04:56:00
10:56 PM,86.0,69.1,57,29.86,10.0,SSE,9.2,-,0.00,Rain,Light Rain,150,2013-07-22 05:56:00
11:56 PM,87.1,66.0,49,29.86,10.0,South,4.6,-,0.00,,Scattered Clouds,180,2013-07-22 06:56:00